CAPE
896 940 916 914 905 974 1190 1288 1196 1056 1057 1071 985 904 629 246 0 1 0 8 32 170 395 540 565 545 478 418 563 765 802 781 752 674 604 532 474 427 782 514 636 756 292 202 115 44 12 72 52 43 15 5 3 2 5 24 19 31 33 27 24 21 17 16 18 22 21 24 16 16 16 16 15 14 18 28 26 21 18 32 60 65 150 344 431
1083 1092 1057 1045 1040 1040 1009 1008 1090 1120 1143 1157 1134 1087 992 793 614 522 431 59 25 87 469 473 526 557 560 568 498 703 770 790 807 728 567 542 496 406 705 642 739 580 520 266 175 160 51 30 131 102 47 21 10 13 33 32 30 32 24 18 17 13 16 14 14 17 20 15 12 19 19 16 14 11 11 28 32 19 12 9 7 11 59 271 428
1046 981 1021 1067 1096 1088 1088 1081 1149 1169 1109 1149 1139 1162 1201 1183 1120 927 658 561 464 278 118 221 344 459 554 562 586 594 742 784 807 772 648 486 475 393 563 639 635 444 500 442 228 276 148 42 108 114 42 6 2 39 31 30 30 19 8 7 9 13 16 14 12 12 12 15 23 20 17 15 13 12 8 10 24 25 14 10 5 5 50 177 360
1069 1119 1182 1164 1090 1027 1010 991 1026 1032 1098 1068 956 880 926 977 1064 1096 1054 837 607 589 554 185 148 271 409 441 478 517 754 734 794 806 707 502 408 376 344 510 626 434 497 482 400 460 184 213 144 82 42 6 3 168 86 22 11 12 10 8 8 9 12 14 12 5 11 21 19 16 10 10 12 8 6 5 17 29 19 14 10 6 19 79 138
1233 1240 1190 1081 1021 983 898 856 876 976 1089 1172 1177 1070 925 843 890 884 934 1010 926 673 573 564 386 327 409 485 501 516 526 639 632 788 726 552 416 388 324 274 321 491 364 449 642 507 260 235 207 143 55 5 2 64 35 17 8 9 6 11 11 8 18 14 7 11 16 14 10 9 7 8 9 11 7 6 9 24 24 14 10 4 6 19 52
1221 1157 1092 1066 1024 931 809 751 820 918 1015 1049 1035 1076 1039 1037 942 738 740 745 907 966 660 517 491 402 393 407 446 502 527 461 498 602 607 491 399 364 299 256 285 246 241 395 674 454 365 405 83 120 65 2 1 10 9 7 8 3 9 14 16 14 19 17 11 10 7 7 8 12 9 8 11 10 9 10 12 13 18 18 12 4 0 0 8
1143 1084 957 912 874 771 727 706 680 712 742 742 756 817 858 862 878 975 954 832 779 862 716 478 403 432 437 419 448 482 506 485 471 466 349 268 244 253 265 275 251 221 239 209 705 472 295 270 2 11 49 0 1 13 12 11 8 3 6 10 15 18 24 10 14 7 8 19 18 15 14 15 12 13 15 17 19 18 15 15 15 7 2 1 2
841 803 786 774 729 708 696 708 688 691 669 683 717 794 780 770 783 936 940 895 848 822 747 568 433 385 384 428 469 469 473 467 480 489 302 158 155 160 178 149 198 229 217 130 186 287 315 250 79 16 2 4 0 3 10 7 7 5 9 11 16 14 18 12 5 12 18 22 14 17 14 11 15 21 27 26 24 21 20 18 16 11 8 3 2
817 779 759 734 671 603 585 594 646 642 602 621 740 753 761 850 859 1007 867 817 802 865 807 688 610 473 352 274 286 393 439 409 407 360 220 56 87 89 85 180 201 205 213 150 47 66 307 378 230 84 29 86 2 1 2 9 7 8 12 14 12 13 18 15 8 18 24 12 12 24 17 17 24 24 19 20 18 17 15 14 16 24 14 8 4
926 871 780 741 671 662 622 609 598 578 539 537 611 588 582 830 911 991 974 850 746 735 751 810 782 741 620 470 420 337 286 299 415 410 371 338 212 113 130 158 174 175 210 164 117 10 67 277 243 118 26 4 1 0 1 4 6 12 8 11 12 13 14 20 22 24 22 14 26 31 29 27 27 24 18 20 17 16 23 30 33 28 36 38 24
1168 1106 963 848 799 782 729 531 529 504 460 450 494 515 587 663 742 726 732 789 782 722 594 498 395 431 568 552 473 368 263 278 288 383 396 312 276 196 96 102 114 151 207 166 125 84 3 13 186 65 104 0 0 0 1 4 5 10 10 12 13 17 16 20 21 22 23 24 32 35 33 29 29 29 23 32 33 29 48 50 42 49 37 33 36
1239 1147 1076 886 831 742 688 600 653 633 562 429 415 447 583 746 792 800 687 568 517 580 532 427 301 0 12 273 252 352 370 337 75 192 158 174 310 321 222 127 119 136 168 180 164 144 60 0 29 0 0 5 0 0 2 7 6 7 8 10 11 10 16 19 14 21 30 41 38 37 30 28 28 28 29 37 37 41 64 51 43 43 23 26 28
1012 938 866 728 654 594 568 549 607 648 670 620 550 521 617 697 767 742 698 673 594 516 589 543 441 392 247 10 1 6 12 18 2 27 148 299 354 336 293 227 161 68 135 192 177 184 138 54 0 0 0 0 1 2 2 2 4 6 9 7 4 10 14 16 16 30 38 33 34 32 31 29 34 30 33 37 38 40 41 34 48 34 14 17 21
912 767 658 583 540 477 466 462 452 513 523 570 615 636 652 656 612 570 625 677 736 696 593 514 463 430 350 258 204 4 27 22 12 7 65 130 161 166 197 202 162 84 103 179 171 190 180 136 30 0 0 0 0 14 0 6 7 11 8 10 6 12 14 18 22 44 45 34 32 33 30 33 34 30 28 34 34 41 40 38 32 29 16 21 24
642 585 557 551 553 490 503 486 457 400 380 380 386 391 444 531 620 624 595 585 630 621 587 441 410 276 304 328 299 226 134 56 62 50 63 125 116 86 92 104 128 133 130 179 163 167 217 188 102 6 0 0 0 0 0 0 0 8 3 9 8 9 17 18 19 44 37 35 34 36 32 32 31 28 26 27 31 32 30 36 31 26 25 26 15
554 534 500 512 510 525 530 537 523 473 442 399 367 463 560 581 579 577 548 577 570 599 636 622 550 369 319 349 346 243 175 17 33 54 62 72 85 72 94 116 176 181 193 204 88 71 234 230 149 23 0 0 0 0 0 0 0 4 3 11 14 10 13 8 14 49 32 28 36 34 30 28 24 22 25 28 29 30 28 33 24 25 17 15 4
392 406 406 412 407 403 436 466 501 521 487 457 404 490 544 660 685 662 660 644 652 659 639 644 624 503 374 288 258 218 176 13 0 10 12 34 69 110 90 114 168 183 179 203 190 147 94 265 192 71 2 0 0 0 0 0 0 5 6 11 16 25 16 1 12 11 23 16 30 35 27 35 23 23 18 35 42 34 23 29 27 19 16 10 1
4 0 0 20 3 0 0 0 4 340 392 412 402 360 379 414 573 656 707 740 709 682 534 564 649 673 625 295 279 382 263 210 52 48 17 48 111 136 153 97 137 165 174 192 207 206 191 245 255 131 34 0 0 0 0 0 0 0 3 15 16 12 8 3 11 15 9 12 24 31 30 16 28 22 25 22 35 42 24 27 30 17 11 5 2
0 0 0 1 0 0 37 48 72 90 129 164 196 210 258 305 380 444 506 578 614 648 671 653 672 750 736 621 506 377 267 114 92 69 30 52 67 146 151 121 99 136 160 192 224 224 228 238 281 200 76 31 0 1 0 0 0 0 0 1 8 6 1 0 5 8 36 37 47 39 25 12 29 16 18 6 3 18 36 24 22 17 8 4 0
0 0 0 0 7 4 5 17 44 69 87 138 188 237 254 274 326 399 500 510 580 560 611 756 778 738 660 633 679 508 397 264 93 94 99 46 58 122 164 157 91 94 113 152 206 239 222 208 244 259 133 56 50 53 32 3 0 0 0 0 1 2 0 0 1 10 18 23 86 72 68 26 21 34 8 1 3 4 23 28 22 12 6 1 2
0 0 1 2 4 4 4 4 9 16 59 95 161 224 247 264 300 343 379 445 505 508 467 509 505 586 763 778 694 545 539 380 118 32 31 60 61 24 54 116 117 110 120 134 201 238 204 168 204 275 157 82 58 61 49 24 0 0 0 0 0 0 0 0 0 14 3 5 36 137 102 93 141 77 4 0 0 0 5 11 7 7 6 3 3
1 2 3 4 5 6 5 7 6 16 44 48 85 139 186 220 273 306 354 371 440 452 440 406 413 474 489 585 725 682 690 671 430 247 167 29 88 220 157 155 69 111 120 120 170 234 243 212 179 252 190 106 68 16 65 46 6 0 0 0 0 0 0 0 0 12 6 0 33 54 27 61 45 25 2 0 0 0 0 0 5 4 3 4 4
4 5 8 10 21 23 18 21 29 41 64 61 79 103 137 164 221 274 290 302 333 331 328 349 378 291 299 367 537 737 889 579 149 260 337 355 277 216 189 200 89 100 96 128 134 189 277 240 192 214 221 127 95 78 82 77 43 4 0 0 0 0 0 0 0 8 6 0 3 16 18 17 118 34 10 2 0 0 0 0 1 3 4 5 5
7 14 15 29 30 28 32 38 52 57 67 83 100 125 157 166 181 180 164 140 161 235 277 408 422 352 314 358 319 319 518 566 387 410 398 367 422 379 294 177 95 72 89 88 101 121 198 304 248 244 231 147 127 112 97 91 70 27 0 0 0 0 0 0 0 0 10 0 1 53 44 76 67 22 43 22 2 0 0 0 2 2 4 6 6
18 28 29 51 45 45 56 62 66 76 81 88 118 134 150 158 153 139 95 96 109 138 178 206 303 297 316 373 346 333 354 337 246 239 224 352 396 378 368 318 204 132 88 82 95 104 100 200 265 222 245 200 155 113 112 104 93 58 24 0 0 0 0 0 0 0 3 0 0 6 46 8 13 44 58 51 6 0 0 0 1 1 2 4 4
44 49 59 62 51 48 70 79 77 61 61 51 71 105 112 136 157 155 156 154 150 156 178 265 261 303 330 310 312 288 240 158 124 125 156 113 288 308 238 182 206 152 114 63 101 109 100 102 166 166 172 188 132 122 140 119 102 88 49 24 0 0 0 0 0 0 0 0 0 0 37 1 30 15 48 51 29 0 0 0 0 0 0 0 4
58 55 65 46 26 27 54 51 36 23 14 12 28 50 82 98 103 97 112 132 163 226 320 358 396 380 379 382 350 314 247 185 122 101 92 95 90 87 87 124 217 166 86 92 121 86 108 70 106 120 186 183 160 136 157 134 95 96 90 45 5 0 0 0 0 0 0 0 0 4 8 14 37 15 14 2 0 0 0 0 0 0 0 0 1
59 23 22 10 6 6 6 9 17 6 5 4 6 13 15 53 80 93 69 129 155 223 302 357 376 420 414 378 325 274 220 177 149 136 108 74 71 57 21 39 155 144 102 132 107 86 85 63 86 88 73 135 148 147 162 134 108 95 87 71 49 30 0 0 0 0 0 0 0 0 12 20 6 14 0 35 0 0 0 0 0 0 0 0 1
22 5 4 5 4 5 6 5 3 2 7 5 3 4 3 52 50 36 19 18 45 97 131 170 249 305 302 323 299 288 222 176 168 155 124 86 56 37 11 16 98 93 36 107 97 65 77 64 51 72 97 60 93 120 147 147 135 125 100 69 84 62 10 0 0 0 0 0 0 0 1 18 26 9 10 9 6 2 0 0 0 0 0 0 0
5 3 4 4 4 4 3 3 2 3 6 7 4 1 3 17 30 9 1 1 14 32 72 125 130 151 139 166 205 197 164 136 145 79 112 85 55 42 12 3 46 63 27 69 66 69 80 84 60 75 84 83 57 82 133 218 190 141 102 85 88 102 78 0 0 0 0 0 0 0 0 8 29 21 0 4 12 4 0 0 0 0 0 0 2
4 1 3 3 3 4 2 2 2 1 3 8 1 1 0 1 6 6 105 106 57 15 17 31 74 25 12 158 170 147 111 98 82 72 66 64 61 21 7 106 24 40 21 34 40 23 55 67 80 76 68 85 95 95 125 194 278 169 114 110 80 108 115 30 0 0 0 0 0 0 0 14 28 33 0 0 9 1 0 0 0 0 0 0 1
1 2 1 1 1 0 1 1 0 0 0 0 1 2 2 0 3 33 11 31 66 8 7 0 13 26 58 60 107 72 67 67 70 44 28 48 42 46 56 57 89 85 75 65 73 82 66 67 81 64 59 78 87 111 127 139 269 288 124 93 98 126 137 96 0 0 0 0 0 0 0 4 24 39 0 3 29 28 18 0 0 0 0 0 1
1 0 0 0 0 0 0 0 0 0 0 0 0 0 0 0 4 55 25 10 58 0 1 0 0 1 3 3 1 1 25 59 63 56 28 43 41 11 43 26 26 75 114 140 109 118 96 66 63 50 63 75 89 95 144 167 230 311 183 104 104 144 149 127 52 0 0 0 0 0 0 0 14 18 54 20 10 4 9 23 0 0 0 0 0
2 0 0 0 0 0 1 0 0 0 0 0 0 0 0 0 2 3 2 2 2 1 6 2 3 0 62 5 1 0 1 23 36 37 17 9 4 2 19 62 56 92 125 113 101 104 82 54 25 54 87 81 103 100 111 130 158 260 231 148 126 157 193 182 147 0 0 0 0 0 0 0 0 34 28 32 10 23 12 26 4 0 0 0 1
2 1 1 1 0 0 0 0 0 0 0 0 0 0 1 2 2 4 4 3 2 2 2 3 4 6 4 5 3 13 2 4 21 11 15 10 6 0 34 66 63 106 108 93 90 88 90 63 8 50 73 92 90 104 115 131 141 147 232 208 136 156 199 207 146 122 57 0 0 0 0 0 2 22 22 38 25 26 30 15 6 6 0 0 0
2 0 0 1 0 0 0 0 0 0 0 0 0 0 1 4 5 3 4 5 5 4 3 3 18 22 5 3 48 49 38 45 45 24 20 15 2 4 19 25 37 44 61 44 37 50 53 44 24 61 77 88 89 100 99 96 144 143 163 203 196 149 132 169 173 163 157 114 45 0 0 0 0 9 13 21 21 30 59 32 2 6 0 0 0
0 0 0 0 0 0 0 0 0 0 0 3 3 2 2 3 3 3 3 4 5 4 4 3 10 21 30 36 58 64 51 49 59 53 38 18 22 26 23 26 23 34 32 32 47 54 54 44 46 56 72 72 64 71 95 112 127 102 119 119 132 126 137 167 194 218 177 136 124 0 0 0 0 0 0 0 11 18 29 24 10 4 0 0 7
0 0 0 0 1 0 0 0 0 0 0 3 2 4 2 2 2 2 3 2 2 2 2 2 2 3 11 27 44 66 98 108 80 65 70 55 7 18 18 14 24 37 35 34 49 71 82 72 72 72 68 63 69 68 77 84 104 127 135 131 140 157 189 190 200 235 226 130 125 56 0 0 0 0 0 10 17 22 2 14 5 0 0 0 0
0 0 0 0 1 0 0 0 0 0 0 0 0 0 0 0 1 1 1 0 1 2 2 1 1 2 4 4 13 34 41 57 63 72 72 73 65 34 18 16 16 17 42 65 60 56 58 75 84 96 95 86 60 78 88 96 117 140 170 157 154 146 145 156 190 214 207 182 179 126 75 28 0 0 0 20 19 4 2 1 0 3 10 8 1
0 0 0 0 0 0 0 0 0 0 0 0 0 0 0 0 0 0 0 0 0 0 0 0 0 0 2 4 4 8 15 19 26 44 70 70 54 46 50 45 31 38 38 54 52 64 54 68 78 117 113 87 58 58 80 92 107 116 131 150 142 118 121 175 197 197 207 219 175 174 109 41 8 6 5 2 2 2 2 1 0 3 26 34 4
0 0 0 0 0 0 0 0 0 0 0 0 0 0 0 0 0 0 0 0 0 0 0 0 0 0 1 2 2 2 4 2 6 7 15 47 64 59 61 66 64 46 37 37 47 57 64 59 68 78 72 71 68 62 83 92 115 101 84 110 131 95 63 120 170 182 171 211 190 164 54 43 70 76 67 49 19 13 16 14 0 15 38 0 10
0 0 0 0 0 0 0 0 0 0 0 0 0 0 0 0 0 0 0 0 0 0 0 0 0 0 0 0 0 0 0 0 0 0 4 19 41 53 61 69 68 58 49 56 60 52 49 48 51 61 59 70 73 103 112 108 90 99 119 136 108 136 138 132 152 204 223 209 208 100 88 62 94 107 67 95 79 44 57 35 3 9 14 9 30
0 0 0 0 0 0 0 0 0 0 0 0 0 0 0 0 0 0 0 0 0 0 0 0 0 0 0 0 0 1 1 0 0 0 0 3 21 31 21 19 41 66 78 78 72 66 69 62 54 59 71 71 84 94 101 129 125 112 127 140 153 149 146 154 188 180 173 150 118 132 100 64 35 86 82 86 122 68 50 47 16 20 27 51 49
0 0 0 0 0 0 0 0 0 0 0 0 0 0 0 0 0 0 0 0 0 0 1 0 0 0 0 0 0 0 0 1 1 0 2 2 1 3 2 2 10 21 42 50 58 53 50 61 63 54 48 50 58 57 64 53 77 118 133 120 118 122 130 122 146 212 153 111 89 91 66 77 72 43 61 96 123 114 72 64 56 49 26 42 38
0 0 0 0 0 0 0 0 0 0 0 0 0 0 0 0 0 0 0 0 0 0 0 1 0 0 0 0 0 0 0 1 1 1 1 5 3 2 1 1 0 3 12 43 60 57 40 37 46 45 52 56 56 56 51 57 55 60 107 139 147 144 148 152 133 148 104 41 68 99 83 59 53 17 91 92 100 88 84 72 83 62 69 49 33
0 0 0 0 0 0 0 0 0 0 0 0 0 0 0 0 0 0 0 0 0 0 0 0 0 0 0 0 0 0 0 0 0 0 0 2 4 2 1 2 3 2 1 2 12 19 29 33 43 53 53 54 45 36 34 41 37 48 57 76 116 136 144 158 101 21 22 36 6 37 43 65 36 1 62 76 103 71 95 112 95 60 62 65 34
0 0 0 0 0 0 0 0 0 0 0 0 0 0 0 0 0 0 0 0 0 0 0 0 0 0 0 0 0 0 0 0 0 0 0 0 1 2 1 0 0 0 0 0 0 1 5 2 7 29 50 52 36 28 25 23 24 24 34 50 65 94 159 158 26 45 74 24 2 1 2 48 43 11 48 75 50 72 101 82 72 46 56 69 70
0 0 0 0 0 0 0 0 0 0 0 0 0 0 0 0 0 0 0 0 0 0 0 0 0 0 0 0 0 0 0 0 0 0 1 1 2 1 1 1 0 0 0 0 0 0 0 0 3 8 6 12 28 24 18 12 12 19 22 33 47 48 40 58 21 22 12 13 12 4 0 35 29 22 24 8 40 109 106 56 32 34 75 96 64
0 0 0 0 0 0 0 0 0 0 0 0 0 0 0 0 0 0 0 0 0 0 0 0 0 0 0 0 0 0 0 0 0 1 0 0 0 4 10 10 7 4 1 0 1 0 1 0 0 0 0 0 3 10 11 11 9 8 15 16 33 29 51 29 34 20 24 35 35 15 9 50 10 15 12 21 55 84 102 71 66 7 10 52 10
0 0 0 0 0 0 0 0 0 0 0 0 0 0 0 0 0 0 0 0 0 0 0 0 0 0 0 0 0 0 0 0 0 0 0 1 3 5 4 1 7 11 11 6 3 0 0 0 0 0 0 0 0 0 0 0 1 5 8 7 11 3 20 43 48 80 96 80 52 43 46 8 0 7 30 11 75 72 66 71 79 5 10 12 15
0 0 0 0 0 0 0 0 0 0 0 0 0 0 0 0 0 0 0 0 0 0 0 0 0 0 0 0 0 0 0 0 0 0 0 0 1 6 2 4 0 0 0 0 0 0 0 0 0 0 1 1 0 0 0 0 0 0 0 1 1 11 20 62 89 62 80 78 56 65 38 0 0 0 18 20 37 35 52 29 20 9 3 7 14
Wind_Speed
21 21 22 20 19 18 17 18 20 19 20 19 19 16 15 16 nan nan nan nan nan 17 15 16 18 16 16 16 16 17 16 17 19 20 18 18 17 15 12 14 13 10 13 15 13 nan nan nan nan nan nan nan nan nan nan nan nan nan nan nan nan nan nan nan nan nan nan nan nan nan nan nan nan nan nan nan nan nan nan nan nan nan 13 13 12
21 21 22 20 20 19 19 18 17 18 21 18 20 19 17 16 16 16 15 nan nan nan 17 14 14 17 17 16 16 15 15 17 19 21 21 19 17 17 12 14 12 11 14 15 13 14 nan nan 13 12 nan nan nan nan nan nan nan nan nan nan nan nan nan nan nan nan nan nan nan nan nan nan nan nan nan nan nan nan nan nan nan nan nan 13 13
20 20 20 20 20 20 20 19 18 18 21 18 18 18 17 17 16 17 16 16 18 19 19 17 15 13 15 15 14 16 15 16 18 21 23 20 19 18 15 13 13 12 13 13 10 14 12 nan 12 11 nan nan nan nan nan nan nan nan nan nan nan nan nan nan nan nan nan nan nan nan nan nan nan nan nan nan nan nan nan nan nan nan nan 14 13
20 19 19 20 19 20 21 21 20 19 20 20 20 19 17 15 16 17 17 18 19 20 21 20 17 15 14 12 13 16 17 18 19 21 23 21 20 19 16 15 14 13 12 13 11 11 11 11 11 nan nan nan nan 16 nan nan nan nan nan nan nan nan nan nan nan nan nan nan nan nan nan nan nan nan nan nan nan nan nan nan nan nan nan nan 15
19 19 18 19 19 19 19 21 22 23 22 20 19 19 17 15 15 17 17 17 18 20 23 23 20 17 17 14 14 15 18 20 20 21 22 21 19 19 18 16 17 14 12 13 12 11 9 11 11 10 nan nan nan nan nan nan nan nan nan nan nan nan nan nan nan nan nan nan nan nan nan nan nan nan nan nan nan nan nan nan nan nan nan nan nan
18 17 18 18 18 18 18 18 19 21 23 22 20 20 18 16 17 17 15 17 18 20 22 21 22 21 19 19 19 18 21 22 23 23 22 20 20 19 19 18 18 18 16 12 12 12 8 8 nan 13 nan nan nan nan nan nan nan nan nan nan nan nan nan nan nan nan nan nan nan nan nan nan nan nan nan nan nan nan nan nan nan nan nan nan nan
18 17 17 19 17 16 17 17 17 19 20 21 20 20 21 20 19 18 17 18 18 18 21 22 24 22 20 21 22 20 21 23 24 24 21 19 20 20 21 19 18 19 17 16 14 13 10 9 nan nan nan nan nan nan nan nan nan nan nan nan nan nan nan nan nan nan nan nan nan nan nan nan nan nan nan nan nan nan nan nan nan nan nan nan nan
18 19 17 17 16 14 15 15 16 17 18 19 21 21 22 23 23 24 21 20 19 17 21 24 27 25 21 21 23 22 21 23 22 22 23 21 20 21 20 21 20 19 17 16 15 15 13 10 nan nan nan nan nan nan nan nan nan nan nan nan nan nan nan nan nan nan nan nan nan nan nan nan nan nan nan nan nan nan nan nan nan nan nan nan nan
18 18 18 16 16 15 14 14 16 17 18 19 21 23 24 24 26 26 26 23 21 18 21 26 28 24 23 24 24 24 24 24 23 23 24 nan nan nan nan 21 21 18 17 17 nan nan 14 11 11 nan nan nan nan nan nan nan nan nan nan nan nan nan nan nan nan nan nan nan nan nan nan nan nan nan nan nan nan nan nan nan nan nan nan nan nan
19 20 19 17 16 16 15 15 17 18 19 21 20 21 24 25 26 28 28 27 25 22 20 23 26 23 24 25 23 24 24 25 25 25 25 22 19 20 22 23 22 21 19 18 17 nan nan 13 11 13 nan nan nan nan nan nan nan nan nan nan nan nan nan nan nan nan nan nan nan nan nan nan nan nan nan nan nan nan nan nan nan nan nan nan nan
19 20 19 18 17 17 17 17 18 19 20 21 20 20 22 25 26 27 30 30 29 27 24 24 23 22 23 25 26 25 25 24 25 25 25 24 21 18 nan 22 24 25 23 21 19 nan nan nan 16 nan 16 nan nan nan nan nan nan nan nan nan nan nan nan nan nan nan nan nan nan nan nan nan nan nan nan nan nan nan nan nan nan nan nan nan nan
19 20 19 19 19 18 18 18 18 19 19 21 22 23 23 23 26 27 28 30 31 30 30 28 25 nan nan 24 27 28 26 24 nan 25 24 24 23 20 20 23 23 25 26 25 24 21 nan nan nan nan nan nan nan nan nan nan nan nan nan nan nan nan nan nan nan nan nan nan nan nan nan nan nan nan nan nan nan nan nan nan nan nan nan nan nan
19 20 20 20 20 20 20 20 21 21 22 23 25 25 26 27 27 29 28 29 31 34 33 34 32 30 28 nan nan nan nan nan nan nan 25 24 25 23 21 22 25 nan 26 27 26 24 21 nan nan nan nan nan nan nan nan nan nan nan nan nan nan nan nan nan nan nan nan nan nan nan nan nan nan nan nan nan nan nan nan nan nan nan nan nan nan
18 20 20 21 20 20 21 21 22 22 23 24 25 27 28 29 30 29 33 30 30 35 35 37 34 33 32 29 26 nan nan nan nan nan nan 25 24 23 22 21 23 nan 27 26 25 26 23 20 nan nan nan nan nan nan nan nan nan nan nan nan nan nan nan nan nan nan nan nan nan nan nan nan nan nan nan nan nan nan nan nan nan nan nan nan nan
18 19 20 20 21 21 22 23 23 23 22 23 25 27 30 32 34 33 32 36 34 37 39 41 34 35 33 31 29 29 27 nan nan nan nan 23 24 nan nan 22 22 27 29 26 25 25 25 23 21 nan nan nan nan nan nan nan nan nan nan nan nan nan nan nan nan nan nan nan nan nan nan nan nan nan nan nan nan nan nan nan nan nan nan nan nan
19 20 20 20 21 22 23 24 24 25 25 25 26 28 31 33 35 37 38 36 38 37 40 40 38 40 35 34 31 31 26 nan nan nan nan nan nan nan nan 22 23 26 30 27 nan nan 26 26 23 nan nan nan nan nan nan nan nan nan nan nan nan nan nan nan nan nan nan nan nan nan nan nan nan nan nan nan nan nan nan nan nan nan nan nan nan
20 20 20 20 21 23 24 25 26 27 28 27 27 28 30 32 35 38 40 40 39 39 39 39 38 39 36 36 33 29 26 nan nan nan nan nan nan 23 nan 24 25 26 27 27 29 29 nan 26 25 nan nan nan nan nan nan nan nan nan nan nan nan nan nan nan nan nan nan nan nan nan nan nan nan nan nan nan nan nan nan nan nan nan nan nan nan
nan nan nan nan nan nan nan nan nan 27 29 29 30 30 30 32 35 38 40 42 42 39 35 38 37 37 34 33 33 28 30 30 nan nan nan nan 25 23 22 nan 27 27 27 27 29 30 29 28 26 25 nan nan nan nan nan nan nan nan nan nan nan nan nan nan nan nan nan nan nan nan nan nan nan nan nan nan nan nan nan nan nan nan nan nan nan
nan nan nan nan nan nan nan nan nan nan 28 30 32 32 32 34 37 40 39 40 40 39 37 34 35 34 32 31 30 28 30 31 nan nan nan nan nan 24 22 23 nan 27 27 26 29 30 30 29 26 25 nan nan nan nan nan nan nan nan nan nan nan nan nan nan nan nan nan nan nan nan nan nan nan nan nan nan nan nan nan nan nan nan nan nan nan
nan nan nan nan nan nan nan nan nan nan nan 28 29 31 34 36 38 39 38 36 35 35 32 31 33 32 33 31 30 27 25 25 nan nan nan nan nan 26 23 22 nan nan 28 26 27 30 29 28 27 25 26 nan nan nan nan nan nan nan nan nan nan nan nan nan nan nan nan nan nan nan nan nan nan nan nan nan nan nan nan nan nan nan nan nan nan
nan nan nan nan nan nan nan nan nan nan nan nan 28 31 33 35 38 38 35 32 33 32 31 28 27 27 28 32 29 27 26 28 27 nan nan nan nan nan nan 24 24 24 26 28 28 30 30 27 27 27 27 nan nan nan nan nan nan nan nan nan nan nan nan nan nan nan nan nan nan 22 23 nan 22 nan nan nan nan nan nan nan nan nan nan nan nan
nan nan nan nan nan nan nan nan nan nan nan nan nan 30 33 36 38 36 33 32 33 31 29 27 26 26 25 27 27 26 26 29 27 26 26 nan nan 24 24 26 nan 23 24 28 28 29 31 30 29 29 28 27 nan nan nan nan nan nan nan nan nan nan nan nan nan nan nan nan nan nan nan nan nan nan nan nan nan nan nan nan nan nan nan nan nan
nan nan nan nan nan nan nan nan nan nan nan nan nan 32 34 36 37 34 30 30 33 31 29 25 24 23 22 26 24 23 23 23 25 26 27 27 26 22 23 25 nan nan nan 24 30 31 32 31 28 28 28 28 nan nan nan nan nan nan nan nan nan nan nan nan nan nan nan nan nan nan nan nan 23 nan nan nan nan nan nan nan nan nan nan nan nan
nan nan nan nan nan nan nan nan nan nan nan nan nan 32 34 36 36 33 30 30 30 29 26 24 21 18 17 21 23 22 22 23 26 26 24 22 24 21 22 25 nan nan nan nan 28 31 31 29 28 29 28 28 26 25 nan nan nan nan nan nan nan nan nan nan nan nan nan nan nan nan nan nan nan nan nan nan nan nan nan nan nan nan nan nan nan
nan nan nan nan nan nan nan nan nan nan nan nan 28 30 32 34 34 31 nan nan 30 28 24 22 17 14 12 15 17 17 18 21 24 23 22 21 22 19 21 25 22 22 nan nan nan 28 31 29 29 29 30 30 27 27 27 27 nan nan nan nan nan nan nan nan nan nan nan nan nan nan nan nan nan nan nan nan nan nan nan nan nan nan nan nan nan
nan nan nan nan nan nan nan nan nan nan nan nan nan 28 30 32 33 30 28 28 28 25 22 20 17 13 11 9 12 14 16 19 19 20 21 22 22 20 20 23 23 21 29 nan 28 29 31 30 30 30 30 29 27 27 28 26 26 nan nan nan nan nan nan nan nan nan nan nan nan nan nan nan nan nan nan nan nan nan nan nan nan nan nan nan nan
nan nan nan nan nan nan nan nan nan nan nan nan nan nan nan nan 32 nan 29 27 26 26 23 19 16 12 10 9 10 12 14 16 18 18 nan nan nan nan nan 21 24 24 nan nan 29 nan 27 nan 29 29 27 27 27 26 26 27 nan nan nan nan nan nan nan nan nan nan nan nan nan nan nan nan nan nan nan nan nan nan nan nan nan nan nan nan nan
nan nan nan nan nan nan nan nan nan nan nan nan nan nan nan nan nan nan nan 25 20 18 19 17 13 10 8 9 9 11 13 14 16 18 18 nan nan nan nan nan 22 23 24 27 28 nan nan nan nan nan nan 26 26 25 24 24 25 nan nan nan nan nan nan nan nan nan nan nan nan nan nan nan nan nan nan nan nan nan nan nan nan nan nan nan nan
nan nan nan nan nan nan nan nan nan nan nan nan nan nan nan nan nan nan nan nan nan nan 16 14 11 8 6 6 8 9 11 12 14 17 17 nan nan nan nan nan nan nan nan 21 nan nan nan nan nan nan nan nan nan 27 27 24 24 25 24 nan nan nan nan nan nan nan nan nan nan nan nan nan nan nan nan nan nan nan nan nan nan nan nan nan nan
nan nan nan nan nan nan nan nan nan nan nan nan nan nan nan nan nan nan nan nan nan nan nan 13 9 7 6 7 8 9 11 11 13 nan 16 nan nan nan nan nan nan nan nan nan nan nan nan nan nan nan nan nan nan nan 28 25 24 26 26 nan nan 29 nan nan nan nan nan nan nan nan nan nan nan nan nan nan nan nan nan nan nan nan nan nan nan
nan nan nan nan nan nan nan nan nan nan nan nan nan nan nan nan nan nan 26 25 nan nan nan nan nan nan nan 7 8 9 10 nan nan nan nan nan nan nan nan 19 nan nan nan nan nan nan nan nan nan nan nan nan nan nan 30 26 24 26 29 30 nan 30 29 nan nan nan nan nan nan nan nan nan nan nan nan nan nan nan nan nan nan nan nan nan nan
nan nan nan nan nan nan nan nan nan nan nan nan nan nan nan nan nan nan nan nan nan nan nan nan nan nan nan nan 10 nan nan nan nan nan nan nan nan nan nan nan nan nan nan nan nan nan nan nan nan nan nan nan nan 36 32 27 25 27 29 nan nan 31 34 nan nan nan nan nan nan nan nan nan nan nan nan nan nan nan nan nan nan nan nan nan nan
nan nan nan nan nan nan nan nan nan nan nan nan nan nan nan nan nan nan nan nan nan nan nan nan nan nan nan nan nan nan nan nan nan nan nan nan nan nan nan nan nan nan 23 25 25 24 nan nan nan nan nan nan nan nan 29 29 29 28 30 35 34 34 34 34 nan nan nan nan nan nan nan nan nan nan nan nan nan nan nan nan nan nan nan nan nan
nan nan nan nan nan nan nan nan nan nan nan nan nan nan nan nan nan nan nan nan nan nan nan nan nan nan nan nan nan nan nan nan nan nan nan nan nan nan nan nan nan nan 25 27 29 30 nan nan nan nan nan nan 32 28 29 30 31 33 35 37 38 36 36 35 34 nan nan nan nan nan nan nan nan nan nan nan nan nan nan nan nan nan nan nan nan
nan nan nan nan nan nan nan nan nan nan nan nan nan nan nan nan nan nan nan nan nan nan nan nan nan nan nan nan nan nan nan nan nan nan nan nan nan nan nan nan nan 24 27 nan nan nan nan nan nan nan nan nan nan 29 28 30 33 36 37 37 37 38 35 30 28 31 nan nan nan nan nan nan nan nan nan nan nan nan nan nan nan nan nan nan nan
nan nan nan nan nan nan nan nan nan nan nan nan nan nan nan nan nan nan nan nan nan nan nan nan nan nan nan nan nan nan nan nan nan nan nan nan nan nan nan nan nan nan nan nan nan nan nan nan nan nan nan nan nan 31 nan nan 34 36 36 39 41 37 34 32 29 33 34 33 nan nan nan nan nan nan nan nan nan nan nan nan nan nan nan nan nan
nan nan nan nan nan nan nan nan nan nan nan nan nan nan nan nan nan nan nan nan nan nan nan nan nan nan nan nan nan nan nan nan nan nan nan nan nan nan nan nan nan nan nan nan nan nan nan nan nan nan nan nan nan nan nan 34 36 37 37 42 42 38 36 35 33 35 37 34 35 nan nan nan nan nan nan nan nan nan nan nan nan nan nan nan nan
nan nan nan nan nan nan nan nan nan nan nan nan nan nan nan nan nan nan nan nan nan nan nan nan nan nan nan nan nan nan nan 15 nan nan nan nan nan nan nan nan nan nan nan nan nan nan nan nan nan nan nan nan nan nan nan nan 36 38 40 43 42 39 38 36 34 38 39 36 38 nan nan nan nan nan nan nan nan nan nan nan nan nan nan nan nan
nan nan nan nan nan nan nan nan nan nan nan nan nan nan nan nan nan nan nan nan nan nan nan nan nan nan nan nan nan nan nan nan nan nan nan nan nan nan nan nan nan nan nan nan nan nan nan nan nan nan nan nan nan nan nan nan 33 34 36 42 40 38 36 33 34 38 40 38 35 33 nan nan nan nan nan nan nan nan nan nan nan nan nan nan nan
nan nan nan nan nan nan nan nan nan nan nan nan nan nan nan nan nan nan nan nan nan nan nan nan nan nan nan nan nan nan nan nan nan nan nan nan nan nan nan nan nan nan nan nan nan nan nan nan nan 22 25 nan nan nan nan nan 34 32 32 34 34 34 34 34 33 39 40 40 40 37 34 nan nan nan nan nan nan nan nan nan nan nan nan nan nan
nan nan nan nan nan nan nan nan nan nan nan nan nan nan nan nan nan nan nan nan nan nan nan nan nan nan nan nan nan nan nan nan nan nan nan nan nan nan nan nan nan nan nan nan nan nan nan nan nan nan nan nan nan nan nan nan 26 27 nan 32 30 nan nan 36 37 39 41 40 40 41 nan nan nan nan nan nan nan nan nan nan nan nan nan nan nan
nan nan nan nan nan nan nan nan nan nan nan nan nan nan nan nan nan nan nan nan nan nan nan nan nan nan nan nan nan nan nan nan nan nan nan nan nan nan nan nan nan nan nan nan nan nan nan nan nan nan nan nan nan 19 21 27 nan nan 32 29 29 33 36 37 40 40 40 41 41 37 nan nan nan 34 nan nan nan nan nan nan nan nan nan nan nan
nan nan nan nan nan nan nan nan nan nan nan nan nan nan nan nan nan nan nan nan nan nan nan nan nan nan nan nan nan nan nan nan nan nan nan nan nan nan nan nan nan nan nan nan nan nan nan nan nan nan nan nan nan nan 21 25 27 29 29 29 31 35 36 38 37 42 38 39 37 37 nan nan nan nan nan nan 40 nan nan nan nan nan nan nan nan
nan nan nan nan nan nan nan nan nan nan nan nan nan nan nan nan nan nan nan nan nan nan nan nan nan nan nan nan nan nan nan nan nan nan nan nan nan nan nan nan nan nan nan nan nan nan nan nan nan nan nan nan nan nan nan nan nan 29 29 30 32 33 34 35 38 39 39 38 nan nan nan nan nan nan nan nan 40 42 nan nan nan nan nan nan nan
nan nan nan nan nan nan nan nan nan nan nan nan nan nan nan nan nan nan nan nan nan nan nan nan nan nan nan nan nan nan nan nan nan nan nan nan nan nan nan nan nan nan nan nan nan nan nan nan nan nan nan nan nan nan nan nan nan nan 30 29 31 32 33 35 38 40 38 nan nan nan nan nan nan nan nan nan nan nan nan nan nan nan nan nan nan
nan nan nan nan nan nan nan nan nan nan nan nan nan nan nan nan nan nan nan nan nan nan nan nan nan nan nan nan nan nan nan nan nan nan nan nan nan nan nan nan nan nan nan nan nan nan nan nan nan nan nan nan nan nan nan nan nan nan nan nan 31 33 34 35 38 nan nan nan nan nan nan nan nan nan nan nan 43 nan nan 47 nan nan nan nan nan
nan nan nan nan nan nan nan nan nan nan nan nan nan nan nan nan nan nan nan nan nan nan nan nan nan nan nan nan nan nan nan nan nan nan nan nan nan nan nan nan nan nan nan nan nan nan nan nan nan nan nan nan nan nan nan nan nan nan nan nan nan nan 37 43 nan nan nan nan nan nan nan nan nan nan nan nan nan nan 48 nan nan nan nan nan nan
nan nan nan nan nan nan nan nan nan nan nan nan nan nan nan nan nan nan nan nan nan nan nan nan nan nan nan nan nan nan nan nan nan nan nan nan nan nan nan nan nan nan nan nan nan nan nan nan nan nan nan nan nan nan nan nan nan nan nan nan nan nan nan nan nan nan nan nan nan nan nan nan nan nan nan nan nan 51 51 nan nan nan nan nan nan
nan nan nan nan nan nan nan nan nan nan nan nan nan nan nan nan nan nan nan nan nan nan nan nan nan nan nan nan nan nan nan nan nan nan nan nan nan nan nan nan nan nan nan nan nan nan nan nan nan nan nan nan nan nan nan nan nan nan nan nan nan nan nan nan nan nan nan nan nan nan nan nan nan nan nan nan nan nan 50 nan nan nan nan nan nan
nan nan nan nan nan nan nan nan nan nan nan nan nan nan nan nan nan nan nan nan nan nan nan nan nan nan nan nan nan nan nan nan nan nan nan nan nan nan nan nan nan nan nan nan nan nan nan nan nan nan nan nan nan nan nan nan nan nan nan nan nan nan nan nan nan nan nan nan nan nan nan nan nan nan nan nan nan nan nan nan nan nan nan nan nan
nan nan nan nan nan nan nan nan nan nan nan nan nan nan nan nan nan nan nan nan nan nan nan nan nan nan nan nan nan nan nan nan nan nan nan nan nan nan nan nan nan nan nan nan nan nan nan nan nan nan nan nan nan nan nan nan nan nan nan nan nan nan nan nan nan nan nan nan nan nan nan nan nan nan nan nan nan nan nan nan nan nan nan nan nan
Wind_Direction
313 314 312 313 313 315 316 320 318 319 315 314 312 309 305 307 nan nan nan nan nan 310 308 306 301 300 300 294 285 282 287 292 296 298 291 277 267 269 290 289 287 287 287 289 290 nan nan nan nan nan nan nan nan nan nan nan nan nan nan nan nan nan nan nan nan nan nan nan nan nan nan nan nan nan nan nan nan nan nan nan nan nan 290 289 289
315 313 313 314 315 316 317 321 320 319 319 319 316 315 314 311 309 306 304 nan nan nan 300 299 297 301 305 301 296 291 287 289 294 295 292 282 268 261 282 289 284 281 285 296 300 297 nan nan 302 296 nan nan nan nan nan nan nan nan nan nan nan nan nan nan nan nan nan nan nan nan nan nan nan nan nan nan nan nan nan nan nan nan nan 292 292
313 311 310 311 313 316 319 319 322 323 320 318 305 307 311 316 304 296 295 294 295 292 294 295 292 290 301 301 297 291 287 281 280 284 287 283 270 262 266 299 287 282 279 284 279 301 292 nan 299 298 nan nan nan nan nan nan nan nan nan nan nan nan nan nan nan nan nan nan nan nan nan nan nan nan nan nan nan nan nan nan nan nan nan 293 288
313 310 311 313 315 318 320 322 326 323 318 319 317 316 322 322 309 298 298 296 294 292 292 294 291 290 288 293 291 290 292 287 285 283 281 280 272 263 264 269 285 284 279 266 282 285 300 299 302 nan nan nan nan 291 nan nan nan nan nan nan nan nan nan nan nan nan nan nan nan nan nan nan nan nan nan nan nan nan nan nan nan nan nan nan 291
316 317 316 316 316 318 322 327 326 323 323 323 323 327 329 325 318 312 307 299 293 291 291 294 295 292 287 288 286 284 284 287 290 288 281 274 270 266 264 267 270 277 281 270 278 289 292 304 305 299 nan nan nan nan nan nan nan nan nan nan nan nan nan nan nan nan nan nan nan nan nan nan nan nan nan nan nan nan nan nan nan nan nan nan nan
316 314 313 311 312 317 319 322 321 318 321 325 328 331 334 330 325 316 314 308 304 294 288 291 296 292 282 275 282 281 280 284 286 291 290 282 269 259 255 260 267 269 269 277 278 286 276 240 nan 298 nan nan nan nan nan nan nan nan nan nan nan nan nan nan nan nan nan nan nan nan nan nan nan nan nan nan nan nan nan nan nan nan nan nan nan
307 309 309 310 310 312 315 317 316 316 318 320 323 326 330 334 325 325 322 320 315 304 297 294 293 288 283 280 284 282 282 284 285 289 291 281 276 272 265 256 257 265 265 265 270 293 277 252 nan nan nan nan nan nan nan nan nan nan nan nan nan nan nan nan nan nan nan nan nan nan nan nan nan nan nan nan nan nan nan nan nan nan nan nan nan
311 311 312 310 309 311 312 310 309 311 314 316 319 323 325 325 324 323 322 322 319 314 306 299 288 286 288 284 280 281 282 284 287 285 283 278 270 267 272 267 259 260 262 262 265 270 281 269 nan nan nan nan nan nan nan nan nan nan nan nan nan nan nan nan nan nan nan nan nan nan nan nan nan nan nan nan nan nan nan nan nan nan nan nan nan
315 314 312 309 310 313 312 309 306 309 311 312 314 317 321 321 320 320 319 317 314 313 306 298 291 292 292 288 287 287 286 285 284 283 281 nan nan nan nan 266 258 260 258 260 nan nan 273 284 278 nan nan nan nan nan nan nan nan nan nan nan nan nan nan nan nan nan nan nan nan nan nan nan nan nan nan nan nan nan nan nan nan nan nan nan nan
315 313 313 314 315 316 313 311 309 310 313 313 314 314 317 317 317 315 317 316 313 312 307 298 298 297 288 287 287 285 286 287 285 285 285 285 277 268 268 268 260 257 259 262 266 nan nan 277 289 275 nan nan nan nan nan nan nan nan nan nan nan nan nan nan nan nan nan nan nan nan nan nan nan nan nan nan nan nan nan nan nan nan nan nan nan
315 314 315 315 316 318 317 317 317 318 319 318 316 314 315 315 314 314 314 314 313 310 305 297 295 293 291 290 287 284 281 284 285 286 285 288 288 276 nan 268 261 255 254 260 266 nan nan nan 267 nan 264 nan nan nan nan nan nan nan nan nan nan nan nan nan nan nan nan nan nan nan nan nan nan nan nan nan nan nan nan nan nan nan nan nan nan
318 317 316 318 318 319 321 320 322 322 325 322 321 320 319 317 314 312 311 311 311 308 304 300 294 nan nan 285 286 283 281 280 nan 285 283 282 285 280 273 264 259 256 252 255 262 267 nan nan nan nan nan nan nan nan nan nan nan nan nan nan nan nan nan nan nan nan nan nan nan nan nan nan nan nan nan nan nan nan nan nan nan nan nan nan nan
317 316 317 319 321 322 325 328 328 330 328 326 325 324 321 319 317 315 315 312 309 308 305 302 299 294 290 nan nan nan nan nan nan nan 283 278 276 279 273 266 261 nan 256 252 258 262 262 nan nan nan nan nan nan nan nan nan nan nan nan nan nan nan nan nan nan nan nan nan nan nan nan nan nan nan nan nan nan nan nan nan nan nan nan nan nan
313 313 315 318 320 325 329 332 332 330 331 328 325 322 321 320 318 317 315 316 309 307 304 299 296 295 290 286 288 nan nan nan nan nan nan 278 280 280 278 268 260 nan 260 257 257 258 257 262 nan nan nan nan nan nan nan nan nan nan nan nan nan nan nan nan nan nan nan nan nan nan nan nan nan nan nan nan nan nan nan nan nan nan nan nan nan
314 315 319 323 326 329 330 330 333 331 330 328 325 323 321 322 320 318 316 314 313 307 306 304 298 295 292 285 283 281 282 nan nan nan nan 280 280 nan nan 270 263 259 260 258 255 254 252 256 266 nan nan nan nan nan nan nan nan nan nan nan nan nan nan nan nan nan nan nan nan nan nan nan nan nan nan nan nan nan nan nan nan nan nan nan nan
317 318 321 324 326 328 329 329 330 331 331 327 326 325 323 321 320 319 316 314 309 306 305 304 300 289 285 289 283 282 278 nan nan nan nan nan nan nan nan 274 267 262 260 259 nan nan 252 252 261 nan nan nan nan nan nan nan nan nan nan nan nan nan nan nan nan nan nan nan nan nan nan nan nan nan nan nan nan nan nan nan nan nan nan nan nan
312 317 320 323 326 328 329 330 330 330 329 328 325 323 321 321 320 318 316 313 309 304 301 301 301 297 291 282 278 279 279 nan nan nan nan nan nan 287 nan 280 273 268 261 257 253 251 nan 254 253 nan nan nan nan nan nan nan nan nan nan nan nan nan nan nan nan nan nan nan nan nan nan nan nan nan nan nan nan nan nan nan nan nan nan nan nan
nan nan nan nan nan nan nan nan nan 327 328 328 326 324 323 320 318 317 317 315 310 306 300 298 297 297 297 292 287 281 271 268 nan nan nan nan 272 282 286 nan 279 270 260 255 255 252 251 251 252 255 nan nan nan nan nan nan nan nan nan nan nan nan nan nan nan nan nan nan nan nan nan nan nan nan nan nan nan nan nan nan nan nan nan nan nan
nan nan nan nan nan nan nan nan nan nan 329 331 329 327 325 323 321 321 319 315 314 312 305 297 291 288 289 290 288 284 280 274 nan nan nan nan nan 277 281 286 nan 273 260 253 252 250 248 248 251 251 nan nan nan nan nan nan nan nan nan nan nan nan nan nan nan nan nan nan nan nan nan nan nan nan nan nan nan nan nan nan nan nan nan nan nan
nan nan nan nan nan nan nan nan nan nan nan 329 329 328 327 326 325 324 321 318 315 313 310 301 293 280 280 279 279 280 280 278 nan nan nan nan nan 268 269 281 nan nan 262 251 252 251 248 244 246 250 251 nan nan nan nan nan nan nan nan nan nan nan nan nan nan nan nan nan nan nan nan nan nan nan nan nan nan nan nan nan nan nan nan nan nan
nan nan nan nan nan nan nan nan nan nan nan nan 328 331 333 332 331 328 324 322 320 315 308 301 293 284 272 271 274 272 271 274 275 nan nan nan nan nan nan 276 290 286 264 250 249 250 246 242 244 249 250 nan nan nan nan nan nan nan nan nan nan nan nan nan nan nan nan nan nan 312 310 nan 310 nan nan nan nan nan nan nan nan nan nan nan nan
nan nan nan nan nan nan nan nan nan nan nan nan nan 333 334 335 336 334 331 329 326 323 314 303 293 281 269 254 258 266 262 264 272 273 270 nan nan 269 274 278 nan 293 274 251 250 250 244 239 241 247 250 251 nan nan nan nan nan nan nan nan nan nan nan nan nan nan nan nan nan nan nan nan nan nan nan nan nan nan nan nan nan nan nan nan nan
nan nan nan nan nan nan nan nan nan nan nan nan nan 336 337 339 340 338 334 332 330 328 319 313 301 286 270 251 241 250 262 271 275 275 274 270 268 265 267 277 nan nan nan 266 250 246 242 242 246 250 252 253 nan nan nan nan nan nan nan nan nan nan nan nan nan nan nan nan nan nan nan nan 306 nan nan nan nan nan nan nan nan nan nan nan nan
nan nan nan nan nan nan nan nan nan nan nan nan nan 337 338 340 340 336 330 329 330 329 323 319 312 294 272 251 241 239 241 250 252 262 270 269 269 267 272 270 nan nan nan nan 255 243 238 240 245 250 252 251 255 258 nan nan nan nan nan nan nan nan nan nan nan nan nan nan nan nan nan nan nan nan nan nan nan nan nan nan nan nan nan nan nan
nan nan nan nan nan nan nan nan nan nan nan nan 333 337 339 342 342 338 nan nan 332 334 329 324 321 304 276 255 248 246 244 254 261 261 264 264 269 268 271 273 276 278 nan nan nan 242 232 234 243 250 249 247 251 256 258 258 nan nan nan nan nan nan nan nan nan nan nan nan nan nan nan nan nan nan nan nan nan nan nan nan nan nan nan nan nan
nan nan nan nan nan nan nan nan nan nan nan nan nan 335 339 342 345 344 338 331 331 337 336 333 328 318 301 277 263 259 254 256 261 266 270 266 264 270 269 270 278 280 272 nan 261 244 230 234 242 246 244 245 250 255 255 259 257 nan nan nan nan nan nan nan nan nan nan nan nan nan nan nan nan nan nan nan nan nan nan nan nan nan nan nan nan
nan nan nan nan nan nan nan nan nan nan nan nan nan nan nan nan 345 nan 342 335 332 338 341 337 326 316 307 292 270 265 263 264 268 273 nan nan nan nan nan 275 277 286 nan nan 257 nan 238 nan 245 245 246 248 253 255 256 257 nan nan nan nan nan nan nan nan nan nan nan nan nan nan nan nan nan nan nan nan nan nan nan nan nan nan nan nan nan
nan nan nan nan nan nan nan nan nan nan nan nan nan nan nan nan nan nan nan 333 328 331 335 331 322 318 309 290 282 270 267 268 274 279 277 nan nan nan nan nan 283 286 277 257 250 nan nan nan nan nan nan 253 253 255 259 263 258 nan nan nan nan nan nan nan nan nan nan nan nan nan nan nan nan nan nan nan nan nan nan nan nan nan nan nan nan
nan nan nan nan nan nan nan nan nan nan nan nan nan nan nan nan nan nan nan nan nan nan 335 333 324 316 298 297 294 280 276 276 278 279 278 nan nan nan nan nan nan nan nan 252 nan nan nan nan nan nan nan nan nan 256 258 257 262 269 264 nan nan nan nan nan nan nan nan nan nan nan nan nan nan nan nan nan nan nan nan nan nan nan nan nan nan
nan nan nan nan nan nan nan nan nan nan nan nan nan nan nan nan nan nan nan nan nan nan nan 333 327 315 299 276 285 289 283 282 278 nan 280 nan nan nan nan nan nan nan nan nan nan nan nan nan nan nan nan nan nan nan 257 257 264 271 264 nan nan 254 nan nan nan nan nan nan nan nan nan nan nan nan nan nan nan nan nan nan nan nan nan nan nan
nan nan nan nan nan nan nan nan nan nan nan nan nan nan nan nan nan nan 348 349 nan nan nan nan nan nan nan 279 284 286 288 nan nan nan nan nan nan nan nan 297 nan nan nan nan nan nan nan nan nan nan nan nan nan nan 255 254 258 267 262 261 nan 258 264 nan nan nan nan nan nan nan nan nan nan nan nan nan nan nan nan nan nan nan nan nan nan
nan nan nan nan nan nan nan nan nan nan nan nan nan nan nan nan nan nan nan nan nan nan nan nan nan nan nan nan 279 nan nan nan nan nan nan nan nan nan nan nan nan nan nan nan nan nan nan nan nan nan nan nan nan 256 252 251 255 269 260 nan nan 260 254 nan nan nan nan nan nan nan nan nan nan nan nan nan nan nan nan nan nan nan nan nan nan
nan nan nan nan nan nan nan nan nan nan nan nan nan nan nan nan nan nan nan nan nan nan nan nan nan nan nan nan nan nan nan nan nan nan nan nan nan nan nan nan nan nan 288 279 268 256 nan nan nan nan nan nan nan nan 253 251 251 256 260 257 256 253 251 248 nan nan nan nan nan nan nan nan nan nan nan nan nan nan nan nan nan nan nan nan nan
nan nan nan nan nan nan nan nan nan nan nan nan nan nan nan nan nan nan nan nan nan nan nan nan nan nan nan nan nan nan nan nan nan nan nan nan nan nan nan nan nan nan 285 282 268 255 nan nan nan nan nan nan 247 253 259 256 253 254 257 255 251 251 249 245 243 nan nan nan nan nan nan nan nan nan nan nan nan nan nan nan nan nan nan nan nan
nan nan nan nan nan nan nan nan nan nan nan nan nan nan nan nan nan nan nan nan nan nan nan nan nan nan nan nan nan nan nan nan nan nan nan nan nan nan nan nan nan 284 284 nan nan nan nan nan nan nan nan nan nan 255 261 255 255 258 259 256 251 246 245 249 251 247 nan nan nan nan nan nan nan nan nan nan nan nan nan nan nan nan nan nan nan
nan nan nan nan nan nan nan nan nan nan nan nan nan nan nan nan nan nan nan nan nan nan nan nan nan nan nan nan nan nan nan nan nan nan nan nan nan nan nan nan nan nan nan nan nan nan nan nan nan nan nan nan nan 255 nan nan 256 259 260 254 248 246 245 245 245 247 255 267 nan nan nan nan nan nan nan nan nan nan nan nan nan nan nan nan nan
nan nan nan nan nan nan nan nan nan nan nan nan nan nan nan nan nan nan nan nan nan nan nan nan nan nan nan nan nan nan nan nan nan nan nan nan nan nan nan nan nan nan nan nan nan nan nan nan nan nan nan nan nan nan nan 257 254 258 260 252 249 248 246 244 243 242 252 265 268 nan nan nan nan nan nan nan nan nan nan nan nan nan nan nan nan
nan nan nan nan nan nan nan nan nan nan nan nan nan nan nan nan nan nan nan nan nan nan nan nan nan nan nan nan nan nan nan 277 nan nan nan nan nan nan nan nan nan nan nan nan nan nan nan nan nan nan nan nan nan nan nan nan 254 252 251 246 243 243 245 242 241 242 248 253 250 nan nan nan nan nan nan nan nan nan nan nan nan nan nan nan nan
nan nan nan nan nan nan nan nan nan nan nan nan nan nan nan nan nan nan nan nan nan nan nan nan nan nan nan nan nan nan nan nan nan nan nan nan nan nan nan nan nan nan nan nan nan nan nan nan nan nan nan nan nan nan nan nan 248 249 248 242 239 239 243 247 245 244 247 250 254 260 nan nan nan nan nan nan nan nan nan nan nan nan nan nan nan
nan nan nan nan nan nan nan nan nan nan nan nan nan nan nan nan nan nan nan nan nan nan nan nan nan nan nan nan nan nan nan nan nan nan nan nan nan nan nan nan nan nan nan nan nan nan nan nan nan 260 246 nan nan nan nan nan 239 237 242 245 246 244 243 244 247 251 251 250 252 253 253 nan nan nan nan nan nan nan nan nan nan nan nan nan nan
nan nan nan nan nan nan nan nan nan nan nan nan nan nan nan nan nan nan nan nan nan nan nan nan nan nan nan nan nan nan nan nan nan nan nan nan nan nan nan nan nan nan nan nan nan nan nan nan nan nan nan nan nan nan nan nan 246 240 nan 241 240 nan nan 245 244 247 254 258 252 256 nan nan nan nan nan nan nan nan nan nan nan nan nan nan nan
nan nan nan nan nan nan nan nan nan nan nan nan nan nan nan nan nan nan nan nan nan nan nan nan nan nan nan nan nan nan nan nan nan nan nan nan nan nan nan nan nan nan nan nan nan nan nan nan nan nan nan nan nan 245 243 240 nan nan 247 246 248 248 247 245 245 245 252 256 258 262 nan nan nan 262 nan nan nan nan nan nan nan nan nan nan nan
nan nan nan nan nan nan nan nan nan nan nan nan nan nan nan nan nan nan nan nan nan nan nan nan nan nan nan nan nan nan nan nan nan nan nan nan nan nan nan nan nan nan nan nan nan nan nan nan nan nan nan nan nan nan 240 244 245 248 251 252 251 252 254 255 253 244 251 260 262 263 nan nan nan nan nan nan 263 nan nan nan nan nan nan nan nan
nan nan nan nan nan nan nan nan nan nan nan nan nan nan nan nan nan nan nan nan nan nan nan nan nan nan nan nan nan nan nan nan nan nan nan nan nan nan nan nan nan nan nan nan nan nan nan nan nan nan nan nan nan nan nan nan nan 243 247 251 255 259 258 256 253 254 254 260 nan nan nan nan nan nan nan nan 259 263 nan nan nan nan nan nan nan
nan nan nan nan nan nan nan nan nan nan nan nan nan nan nan nan nan nan nan nan nan nan nan nan nan nan nan nan nan nan nan nan nan nan nan nan nan nan nan nan nan nan nan nan nan nan nan nan nan nan nan nan nan nan nan nan nan nan 244 250 253 255 256 259 255 250 255 nan nan nan nan nan nan nan nan nan nan nan nan nan nan nan nan nan nan
nan nan nan nan nan nan nan nan nan nan nan nan nan nan nan nan nan nan nan nan nan nan nan nan nan nan nan nan nan nan nan nan nan nan nan nan nan nan nan nan nan nan nan nan nan nan nan nan nan nan nan nan nan nan nan nan nan nan nan nan 253 255 258 258 252 nan nan nan nan nan nan nan nan nan nan nan 261 nan nan 267 nan nan nan nan nan
nan nan nan nan nan nan nan nan nan nan nan nan nan nan nan nan nan nan nan nan nan nan nan nan nan nan nan nan nan nan nan nan nan nan nan nan nan nan nan nan nan nan nan nan nan nan nan nan nan nan nan nan nan nan nan nan nan nan nan nan nan nan 257 254 nan nan nan nan nan nan nan nan nan nan nan nan nan nan 259 nan nan nan nan nan nan
nan nan nan nan nan nan nan nan nan nan nan nan nan nan nan nan nan nan nan nan nan nan nan nan nan nan nan nan nan nan nan nan nan nan nan nan nan nan nan nan nan nan nan nan nan nan nan nan nan nan nan nan nan nan nan nan nan nan nan nan nan nan nan nan nan nan nan nan nan nan nan nan nan nan nan nan nan 261 258 nan nan nan nan nan nan
nan nan nan nan nan nan nan nan nan nan nan nan nan nan nan nan nan nan nan nan nan nan nan nan nan nan nan nan nan nan nan nan nan nan nan nan nan nan nan nan nan nan nan nan nan nan nan nan nan nan nan nan nan nan nan nan nan nan nan nan nan nan nan nan nan nan nan nan nan nan nan nan nan nan nan nan nan nan 259 nan nan nan nan nan nan
nan nan nan nan nan nan nan nan nan nan nan nan nan nan nan nan nan nan nan nan nan nan nan nan nan nan nan nan nan nan nan nan nan nan nan nan nan nan nan nan nan nan nan nan nan nan nan nan nan nan nan nan nan nan nan nan nan nan nan nan nan nan nan nan nan nan nan nan nan nan nan nan nan nan nan nan nan nan nan nan nan nan nan nan nan
nan nan nan nan nan nan nan nan nan nan nan nan nan nan nan nan nan nan nan nan nan nan nan nan nan nan nan nan nan nan nan nan nan nan nan nan nan nan nan nan nan nan nan nan nan nan nan nan nan nan nan nan nan nan nan nan nan nan nan nan nan nan nan nan nan nan nan nan nan nan nan nan nan nan nan nan nan nan nan nan nan nan nan nan nan